sat.trackr.live / text

‹ back to catalog

BEIDOU-3 G3 (PRN 143)

NORAD 45807 · 2020-040A

PAYLOAD ACTIVE UNKNOWN

§ Identity

Operator
Country
PRC
Launch date
2020-06-23
Launch site
XICLF
Launch vehicle
Mass (kg)
RCS (m²)

Purposes: comms, nav

External: N2YO · Heavens-Above · Gunter

§ Orbital elements

Epoch: 2026-05-25T00:50:51.266976Z

Period
1,436.14 min
Inclination
2.3929°
Eccentricity
0.0003138
Mean motion
1.00268585 rev/d
Perigee alt
35,774.3 km
Apogee alt
35,800.7 km
Semi-major
42,165.6 km
B*
0.0000e+0
RAAN
67.3971°
Arg perigee
335.2392°
Mean anomaly
323.2267°
Rev number
2,183

§ Raw data

BEIDOU-3 G3 (PRN 143)1 45807U 20040A   26145.03531559 -.00000355  00000+0  00000+0 0  99912 45807   2.3929  67.3971 0003138 335.2392 323.2267  1.00268585 21830

JSON: /api/v1/satellites/45807 · /tle

For live sub-satellite position, see the globe view (requires WebGL).

§ Visibility from observer

Set your observer location to see the next 7 days of passes ≥ 10°. The values pass through the URL so the page stays shareable.

No JS? Fill the form by hand. The geolocation button needs JavaScript.